This is the latest recevied weather packets stored in our database for station/object M0HPP-13. If no packets are shown the sender has not sent any weather packets the latest 10 day(s).
| Time | Temp. | Humidity | Pressure | Rain* | Wind** | Luminosity | Snow |
|---|---|---|---|---|---|---|---|
| 1787574486 | 15.56° C | 89% | 1021.6 hPa | 0 mm | - | 492 W/m² | - |
| 1787573886 | 15° C | 90% | 1021.7 hPa | 0 mm | - | 458 W/m² | - |
| 1787573286 | 15.56° C | 89% | 1021.8 hPa | 0 mm | - | 374 W/m² | - |
| 1787572686 | 15.56° C | 90% | 1021.9 hPa | 0 mm | - | 361 W/m² | - |
| 1787572086 | 15.56° C | 90% | 1021.8 hPa | 0 mm | - | 466 W/m² | - |
| 1787571486 | 15.56° C | 89% | 1021.9 hPa | 0 mm | - | 480 W/m² | - |
| 1787570886 | 15.56° C | 89% | 1021.9 hPa | 0 mm | - | 466 W/m² | - |
| 1787570286 | 15.56° C | 89% | 1022 hPa | 0 mm | - | 425 W/m² | - |
| 1787569686 | 15.56° C | 88% | 1022 hPa | 0 mm | - | 457 W/m² | - |
| 1787569086 | 15.56° C | 89% | 1022 hPa | 0 mm | - | 502 W/m² | - |
| 1787568486 | 15.56° C | 90% | 1022.2 hPa | 0 mm | - | 451 W/m² | - |
| 1787567886 | 15° C | 90% | 1022.2 hPa | 0 mm | - | 421 W/m² | - |
| 1787567286 | 15° C | 91% | 1022.1 hPa | 0 mm | - | 395 W/m² | - |
| 1787566686 | 15° C | 91% | 1022.2 hPa | 0 mm | - | 263 W/m² | - |
| 1787566086 | 14.44° C | 92% | 1022.3 hPa | 0 mm | - | 233 W/m² | - |
| 1787565486 | 14.44° C | 94% | 1022.5 hPa | 0 mm | - | 179 W/m² | - |
| 1787564886 | 15° C | 91% | 1022.5 hPa | 0 mm | - | 284 W/m² | - |
| 1787564286 | 15° C | 92% | 1022.4 hPa | 0 mm | - | 411 W/m² | - |
| 1787563686 | 13.89° C | 95% | 1022.5 hPa | 0 mm | - | 323 W/m² | - |
| 1787563086 | 13.89° C | 95% | 1022.5 hPa | 0 mm | - | 193 W/m² | - |
| 1787562486 | 13.33° C | 96% | 1022.6 hPa | 0 mm | - | 148 W/m² | - |
| 1787561886 | 13.89° C | 95% | 1022.7 hPa | 0 mm | - | 92 W/m² | - |
| 1787561286 | 13.89° C | 95% | 1022.6 hPa | 0 mm | - | 145 W/m² | - |
| 1787560686 | 13.89° C | 95% | 1022.7 hPa | 0 mm | - | 121 W/m² | - |
| 1787560086 | 13.33° C | 97% | 1022.7 hPa | 0 mm | - | 158 W/m² | - |
* Rain latest hour (hover to see other rain measurements)
** Current wind speed in m/s (hover to see current wind gust speed)